Weather in Kersha

Russia / Tambov Oblast     52°47′42″N   42°03′08″E
temp.,
°C
wind,
m/s
gust,
m/s
humid.,
%
clouds,
%
prec.,
mm/h
press.,
hPa
HPBL,
m
22 may, sun
sun2200:00+7s2363100 0.0 100640
03:00+7se3461100 0.0 100486
06:00+8ese3780100 0.1 1001240
09:00+9ese4880100 0.1 999469
12:00+12ese5765100 0.0 9991192
15:00+13e5659100 0.1 9981544
18:00+12ne6868100 0.9 997266
21:00+8nne51183100 1.1 999396
23 may, mon
mon2300:00+6nne598227 0.0 1000424
03:00+2nne49865 0.0 1002244
06:00+2n59765 0.0 1003393
09:00+6nnw565461 0.0 10041276
12:00+9nnw564998 0.0 10041837
15:00+8nw675798 0.0 10061623
18:00+7wnw476199 0.0 10061234
21:00+4wsw34775 0.0 100662
24 may, tue
tue2400:00+3sw4108353 0.0 1006175
03:00+3wsw410925 0.0 1006185
06:00+5wsw5127885 0.0 1006323
09:00+10w4657100 0.0 1006764
12:00+13w71048100 0.0 10062305
15:00+11nnw7954100 0.0 10071827
18:00+9nw4667100 0.1 10081222
21:00+6nw378182 0.3 1010297
25 may, wed
wed2500:00+3nw34925 0.0 101269
03:00+1nnw34945 0.0 101377
06:00+3nnw35845 0.0 1014208
09:00+8nnw345980 0.0 10151413
12:00+8nw4556100 0.1 10151408
15:00+9nw4557100 0.1 10161417
18:00+8nw356394 0.1 10161044
21:00+6nw2368100 0.1 101790
26 may, thu
thu2600:00+4w2283100 0.0 101715
03:00+3wsw228770 0.0 101721
06:00+5sw3478100 0.0 1016152
09:00+11ssw576792 0.0 1013721
12:00+17sw686544 0.1 10111290
15:00+18wsw6106553 1.6 10091336
18:00+14sw31085100 1.8 1007287
21:00+12wsw61287100 2.1 1005596